Regional Weather Roundup
Issued by NWS

Home | Current Version | Previous Version | Text Only | Print | Product List | Glossary Off
Versions: 1 2 3 4 5 6 7 8 9 10 11 12 13 14 15 16 17 18 19 20 21 22 23 24 25 26 27 28

000
ASUS45 KPSR 211610
RWRAZ

ARIZONA HOURLY REGIONAL WEATHER ROUNDUP
NATIONAL WEATHER SERVICE PHOENIX AZ
900 AM MST MON AUG 21 2017

NOTE: FAIR INDICATES FEW OR NO CLOUDS BELOW 12,000 FEET WITH NO
SIGNIFICANT WEATHER AND/OR OBSTRUCTIONS TO VISIBILITY.

AZZ001>003-036-211700-
NORTHWEST ARIZONA

CITY           SKY/WX    TMP DP  RH WIND       PRES   REMARKS
BULLHEAD CITY  CLOUDY    84  63  48 N12       29.94R
KINGMAN        LGT RAIN  69  63  81 VRB5      30.14R
$$

AZZ004>008-015-016-018-211700-
NORTH CENTRAL ARIZONA

CITY           SKY/WX    TMP DP  RH WIND       PRES   REMARKS
GRAND CANYON   PTSUNNY   63  56  78 CALM      30.32R
WILLIAMS       PTSUNNY   66  54  63 CALM      30.33R
PRESCOTT       CLOUDY    72  56  57 N7        30.22R
FLAGSTAFF      PTSUNNY   66  50  56 CALM      30.35R
PAYSON           N/A     75  52  43 SW5       30.23R
PAGE           SUNNY     82  46  28 VRB6      30.14R
$$

AZZ009>014-017-211700-
NORTHEAST ARIZONA

CITY           SKY/WX    TMP DP  RH WIND       PRES   REMARKS
WINSLOW        SUNNY     75  54  47 E7        30.21R
SAINT JOHNS    SUNNY     71  53  52 CALM      30.24S
WINDOW ROCK    SUNNY     67  52  58 CALM      30.31S
SHOW LOW       SUNNY     70  54  56 S12       30.30R
$$

AZZ540-542>544-546-548-211700-
GREATER PHOENIX AREA

CITY           SKY/WX    TMP DP  RH WIND       PRES   REMARKS
PHOENIX        MOSUNNY   91  57  31 SE6       29.93R
BUCKEYE        SUNNY     91  54  27 E9        29.94R
GLENDALE       MOSUNNY   93  57  29 CALM      29.95R
LUKE AFB       SUNNY     91  58  32 SE3       29.92R
DEER VALLEY    SUNNY     90  55  30 CALM      29.95R
SCOTTSDALE     SUNNY     88  56  33 CALM      29.97R
MESA-FALCON    MOSUNNY   90  57  33 NE3       29.96R
MESA-GATEWAY   MOSUNNY   88  57  35 E7        29.97R
CHANDLER       MOSUNNY   90  57  33 E6        29.94R
$$

AZZ539-553-211700-
SOUTHWEST MARICOPA COUNTY AND PINAL COUNTY

CITY           SKY/WX    TMP DP  RH WIND       PRES   REMARKS
CASA GRANDE    MOSUNNY   88  59  37 E5        29.97R
GILA BEND      MOSUNNY   95  44  16 S5        29.91R
$$

AZZ503-504-507>509-211700-
SOUTHEAST ARIZONA

CITY           SKY/WX    TMP DP  RH WIND       PRES   REMARKS
TUCSON         SUNNY     82  61  47 CALM      30.05S
DAVIS-MONTHAN  SUNNY     85  58  39 S6        30.05R
RYAN FIELD     SUNNY     82  57  42 CALM      30.05R
NOGALES        SUNNY     80  63  55 VRB3      30.14R
SIERRA VISTA   SUNNY     80  53  38 CALM      30.20R
DOUGLAS        SUNNY     75  61  61 CALM      30.16S
SAFFORD        SUNNY     82  59  45 VRB7      30.09R
$$

AZZ532-211700-
SOUTHWEST ARIZONA

CITY           SKY/WX    TMP DP  RH WIND       PRES   REMARKS
YUMA           PTSUNNY   89  68  49 SE6       29.87R
$$

CAZ041-043-047-048-061-525>527-560>570-211700-
SOUTHERN CALIFORNIA

CITY           SKY/WX    TMP DP  RH WIND       PRES   REMARKS
DOWNTOWN L.A.  CLOUDY    74  61  63 CALM      30.00R
L.A. AIRPORT   PTSUNNY   70  60  70 VRB3      30.01R
SAN DIEGO      PTSUNNY   72  60  66 W5        30.01R
BURBANK        PTSUNNY   68  58  70 CALM      30.01S
ONTARIO        CLOUDY    69  60  73 VRB3      30.02S HAZE
RIVERSIDE      CLOUDY    66  61  84 VRB5      30.02S
PALM SPRINGS   SUNNY     88  54  31 CALM      29.89S
EL CENTRO NAS  MOSUNNY   91  54  28 NE7       29.87R
IMPERIAL       SUNNY     89  59  36 N5        29.85R
BLYTHE         PTSUNNY   89  57  33 S6        29.88R
NEEDLES        PTSUNNY   91  60  35 N6        29.94R
$$

NVZ020-UTZ003-211700-
SOUTHERN NEVADA-UTAH

CITY           SKY/WX    TMP DP  RH WIND       PRES   REMARKS
LAS VEGAS      LGT RAIN  81  61  50 CALM      30.08R
SALT LAKE CITY MOSUNNY   82  45  27 SW6       30.11R
$$

NMZ009-TXZ055-211700-
NEW MEXICO-WEST TEXAS

CITY           SKY/WX    TMP DP  RH WIND       PRES   REMARKS
ALBUQUERQUE    CLOUDY    64  59  83 SW6       30.26R
EL PASO        MOSUNNY   73  65  75 SE6       30.17R
$$


........................KEY........................
SKY/WX - SKY CONDITION/WEATHER
TMP    - TEMPERATURE IN FAHRENHEIT
DP     - DEW POINT IN FAHRENHEIT
RH     - RELATIVE HUMIDITY IN PERCENT
WIND   - DIRECTION AND SPEED IN MILES PER HOUR (MPH)
VRB    - VARIABLE WIND DIRECTION
PRES   - MEAN SEA LEVEL PRESSURE IN INCHES OF MERCURY
         F - FALLING PRESSURE   R - RISING PRESSURE
         S - STEADY PRESSURE
VSB    - VISIBILITY IN MILES
HX     - HEAT INDEX IN FAHRENHEIT
WCI    - WIND CHILL INDEX IN FAHRENHEIT
TC     - TEMPERATURE IN CELSIUS WHICH IS ALSO KNOWN AS
         TEMPERATURE IN CENTIGRADE
AFB    - AIR FORCE BASE
         LUKE AFB IS LUKE AIR FORCE BASE
         DAVIS-MONTHAN IS DAVIS-MONTHAN AIR FORCE BASE
NAS    - NAVAL AIR STATION
         EL CENTRO NAS IS EL CENTRO NAVAL AIR STATION
N/A    - NOT AVAILABLE





USA.gov is the U.S. government's official web portal to all federal, state and local government web resources and services.